This demonstration page uses our WeatherBlox Daily Observations layout. Learn more.

Left ArrowRight Arrow

44.8408, -93.29828

Hourly Observations for February 17, 2022

Temp ( °F °C ) Dew Point ( °F °C ) Humidity (%) Winds ( mph kmh ) Pressure ( in mb ) Visibility ( mi km ) Precip ( " mm )
12:53 am 00:53 Mostly Cloudy 10 -12.2 1 -17.2 67 67 NW 14 22 30.27 1025 10 16 0.00 0.00
1:53 am 01:53 Partly Cloudy 7 -13.9 -4 -20 60 60 NNW 18 30 30.29 1026 10 16 0.00 0.00
2:53 am 02:53 Mostly Clear 4 -15.6 -7 -21.7 60 60 NNW 18 30 30.28 1026 10 16 0.00 0.00
3:53 am 03:53 Mostly Clear 2 -16.7 -8 -22.2 63 63 NNW 14 22 30.29 1026 10 16 0.00 0.00
4:53 am 04:53 Mostly Clear 1 -17.2 -9 -22.8 62 62 NNW 13 20 30.31 1026 10 16 0.00 0.00
5:41 am 05:41 Partly Cloudy 0 -17.8 -9 -22.8 65 65 NW 8 13 30.45 1031 10 16 0.00 0.00
5:53 am 05:53 Mostly Clear 0 -17.8 -9 -22.8 65 65 NNW 10 17 30.38 1029 10 16 0.00 0.00
6:53 am 06:53 Partly Cloudy -1 -18.3 -10 -23.3 65 65 NNW 14 22 30.36 1028 10 16 0.00 0.00
7:53 am 07:53 Mostly Cloudy -2 -18.9 -11 -23.9 65 65 NNW 14 22 30.38 1029 10 16 0.00 0.00
8:53 am 08:53 Mostly Cloudy -1 -18.3 -11 -23.9 62 62 N 12 19 30.44 1031 10 16 0.00 0.00
9:53 am 09:53 Mostly Cloudy 0 -17.8 -11 -23.9 59 59 N 12 19 30.39 1029 10 16 0.00 0.00
10:53 am 10:53 Mostly Cloudy 2 -16.7 -9 -22.8 59 59 NNW 12 19 30.37 1029 10 16 0.00 0.00
11:53 am 11:53 Partly Cloudy 4 -15.6 -8 -22.2 57 57 N 7 11 30.37 1028 10 16 0.00 0.00
12:53 pm 12:53 Mostly Sunny 6 -14.4 -9 -22.8 49 49 NW 9 15 30.33 1027 10 16 0.00 0.00
1:53 pm 13:53 Mostly Sunny 8 -13.3 -8 -22.2 47 47 WNW 7 11 30.30 1026 10 16 0.00 0.00
2:53 pm 14:53 Mostly Sunny 8 -13.3 -8 -22.2 47 47 NNW 9 15 30.28 1025 10 16 0.00 0.00
3:53 pm 15:53 Mostly Sunny 9 -12.8 -9 -22.8 43 43 NW 10 17 30.27 1025 10 16 0.00 0.00
4:53 pm 16:53 Mostly Sunny 7 -13.9 -8 -22.2 50 50 NW 10 17 30.27 1025 10 16 0.00 0.00
5:53 pm 17:53 Mostly Clear 5 -15 -9 -22.8 52 52 WNW 10 17 30.27 1025 10 16 0.00 0.00
6:53 pm 18:53 Clear 3 -16.1 -9 -22.8 57 57 NW 9 15 30.28 1025 10 16 0.00 0.00
7:53 pm 19:53 Clear 3 -16.1 -10 -23.3 54 54 NNW 7 11 30.26 1025 10 16 0.00 0.00
8:53 pm 20:53 Clear 3 -16.1 -10 -23.3 54 54 NNW 3 6 30.25 1025 10 16 0.00 0.00
9:53 pm 21:53 Mostly Clear 2 -16.7 -10 -23.3 57 57 N 3 6 30.25 1025 10 16 0.00 0.00
10:53 pm 22:53 Mostly Clear 3 -16.1 -9 -22.8 57 57 ESE 3 6 30.25 1024 10 16 0.00 0.00
11:53 pm 23:53 Mostly Cloudy 2 -16.7 -10 -23.3 57 57 SE 8 13 30.22 1024 10 16 0.00 0.00

Powered by AerisWeather